"TOA5","MOW","CPU:UNC_MeetingWaters","DataHourly"
"TIMESTAMP","SondeTempC","SpCond","DOSat","DOmg","pH","Turb","BattVolt_Min"
"TS","","","","","","",""
"","Smp","Smp","Smp","Smp","Smp","Smp","Min"
"2001-10-01 00:00:00",14.4499998093,0.179000005126,105.199996948,10.7399997711,7.48000001907,1.60000002384,12.6000003815
"2001-10-01 01:00:00",14.2100000381,0.172000005841,105.5,10.8199996948,7.46999979019,1.60000002384,12.5699996948
"2001-10-01 02:00:00",13.9799995422,0.166999995708,105.5,10.8800001144,7.46999979019,1.29999995232,12.5500001907
"2001-10-01 03:00:00",13.75,0.177000001073,105.599998474,10.9399995804,7.48000001907,1.10000002384,12.5200004578
"2001-10-01 04:00:00",13.5,0.172000005841,105.699996948,11.0100002289,7.46999979019,1.0,12.5
"2001-10-01 05:00:00",13.3000001907,0.172000005841,106.099998474,11.1000003815,7.51000022888,1.0,12.470000267
"2001-10-01 06:00:00",13.1300001144,0.171000003815,106.400001526,11.1700000763,7.48999977112,0.899999976158,12.4399995804
"2001-10-01 07:00:00",12.9200000763,0.175999999046,106.699996948,11.2600002289,7.5,1.10000002384,12.4200000763
"2001-10-01 08:00:00",12.7899999619,0.32800000906,106.800003052,11.2899999619,7.51000022888,0.800000011921,12.4099998474
"2001-10-01 09:00:00",12.8500003815,0.303000003099,108.199996948,11.4300003052,7.5,1.0,12.4600000381
"2001-10-01 10:00:00",13.1999998093,0.187999993563,109.5,11.4799995422,7.55000019073,1.10000002384,13.2299995422
"2001-10-01 11:00:00",13.8599996567,0.181999996305,112.0,11.5699996948,7.63000011444,1.10000002384,13.3800001144
"2001-10-01 12:00:00",14.0699996948,0.187999993563,111.199996948,11.4399995804,7.57999992371,0.899999976158,12.9300003052
"2001-10-01 13:00:00",14.970000267,0.272000014782,112.400001526,11.3299999237,7.57999992371,0.899999976158,13.3100004196
"2001-10-01 14:00:00",15.1700000763,0.323000013828,111.900001526,11.2299995422,7.57999992371,1.29999995232,12.9099998474
"2001-10-01 15:00:00",15.7399997711,0.307999998331,113.099998474,11.220000267,7.59000015259,1.20000004768,13.2399997711
"2001-10-01 16:00:00",15.7399997711,0.184000000358,111.699996948,11.0799999237,7.59999990463,1.10000002384,13.1899995804
"2001-10-01 17:00:00",15.6899995804,0.223000004888,109.5,10.8800001144,7.59000015259,1.20000004768,12.9099998474
"2001-10-01 18:00:00",15.6700000763,0.180999994278,109.0,10.8299999237,7.57999992371,1.39999997616,12.8199996948
"2001-10-01 19:00:00",15.5799999237,0.321000009775,107.800003052,10.7299995422,7.57000017166,1.60000002384,12.7600002289
"2001-10-01 20:00:00",15.5100002289,0.277999997139,106.900001526,10.6499996185,7.55999994278,1.29999995232,12.7299995422
"2001-10-01 21:00:00",15.3599996567,0.199000000954,106.5,10.6499996185,7.53999996185,1.39999997616,12.6999998093
"2001-10-01 22:00:00",15.2399997711,0.178000003099,106.400001526,10.6599998474,7.53000020981,1.20000004768,12.6700000763
"2001-10-01 23:00:00",15.1000003815,0.172999992967,106.300003052,10.6899995804,7.53000020981,1.39999997616,12.6499996185
"2001-10-02 00:00:00",14.9600000381,0.307000011206,106.099998474,10.6999998093,7.53000020981,1.20000004768,12.6300001144
"2001-10-02 01:00:00",14.8299999237,0.187999993563,106.400001526,10.7600002289,7.51000022888,1.29999995232,12.6099996567
"2001-10-02 02:00:00",14.6899995804,0.185000002384,106.300003052,10.7899999619,7.51999998093,1.10000002384,12.5799999237
"2001-10-02 03:00:00",14.6000003815,0.300999999046,105.800003052,10.75,7.51999998093,1.5,12.5699996948
"2001-10-02 04:00:00",14.5,0.314999997616,105.0,10.6899995804,7.48999977112,1.5,12.5500001907
"2001-10-02 05:00:00",14.3800001144,0.192000001669,104.199996948,10.6400003433,7.48000001907,1.60000002384,12.529999733
"2001-10-02 06:00:00",14.25,0.317000001669,103.900001526,10.6400003433,7.48000001907,1.5,12.4899997711
"2001-10-02 07:00:00",14.1499996185,0.233999997377,104.5,10.720000267,7.46000003815,1.70000004768,12.470000267
"2001-10-02 08:00:00",14.0100002289,0.181999996305,105.699996948,10.8800001144,7.46999979019,1.89999997616,12.4499998093
"2001-10-02 09:00:00",14.0399999619,0.300000011921,107.300003052,11.0399999619,7.51000022888,1.5,12.4499998093
"2001-10-02 10:00:00",14.3400001526,0.333000004292,109.199996948,11.1599998474,7.53000020981,1.5,13.4300003052
"2001-10-02 11:00:00",14.8900003433,0.32800000906,111.800003052,11.2899999619,7.59999990463,1.29999995232,13.3199996948
"2001-10-02 12:00:00",15.3000001907,0.321000009775,112.099998474,11.220000267,7.57999992371,1.89999997616,13.0200004578
"2001-10-02 13:00:00",16.0599994659,0.324999988079,113.199996948,11.1499996185,7.57000017166,2.70000004768,13.2399997711
"2001-10-02 14:00:00",16.4200000763,0.321999996901,112.599998474,11.0100002289,7.59000015259,2.79999995232,12.8699998856
"2001-10-02 15:00:00",16.9500007629,0.326999992132,113.400001526,10.9600000381,7.59999990463,2.70000004768,13.1499996185
"2001-10-02 16:00:00",17.0400009155,0.32800000906,111.599998474,10.7700004578,7.59999990463,2.79999995232,13.1199998856
"2001-10-02 17:00:00",17.0499992371,0.316000014544,109.199996948,10.529999733,7.59000015259,2.90000009537,12.8400001526
"2001-10-02 18:00:00",17.1200008392,0.31099998951,108.300003052,10.4300003052,7.55000019073,3.5,12.779999733
"2001-10-02 19:00:00",17.1000003815,0.305999994278,107.5,10.3599996567,7.53000020981,3.90000009537,12.75
"2001-10-02 20:00:00",17.0900001526,0.298999994993,106.400001526,10.25,7.5,5.30000019073,12.720000267
"2001-10-02 21:00:00",17.0400009155,0.293999999762,106.300003052,10.2600002289,7.48999977112,5.69999980927,12.6899995804
"2001-10-02 22:00:00",16.9599990845,0.286000013351,106.199996948,10.2700004578,7.48000001907,5.09999990463,12.6700000763
"2001-10-02 23:00:00",16.8500003815,0.291999995708,106.099998474,10.279999733,7.46999979019,4.19999980927,12.6499996185
"2001-10-03 00:00:00",16.7099990845,0.254000008106,106.199996948,10.3199996948,7.46999979019,3.59999990463,12.6300001144
"2001-10-03 01:00:00",16.5400009155,0.180000007153,106.099998474,10.3500003815,7.46999979019,3.09999990463,12.6000003815
"2001-10-03 02:00:00",16.3799991608,0.303999990225,105.900001526,10.3599996567,7.46000003815,2.90000009537,12.5799999237
"2001-10-03 03:00:00",16.2099990845,0.303999990225,106.599998474,10.470000267,7.46000003815,2.70000004768,12.5500001907
"2001-10-03 04:00:00",16.0100002289,0.189999997616,107.0,10.5500001907,7.46999979019,3.0,12.529999733
"2001-10-03 05:00:00",15.8199996948,0.186000004411,107.099998474,10.6000003815,7.48000001907,2.70000004768,12.5
"2001-10-03 06:00:00",15.6300001144,0.187999993563,106.900001526,10.6300001144,7.48000001907,3.5,12.4799995422
"2001-10-03 07:00:00",15.4399995804,0.190999999642,107.300003052,10.720000267,7.48999977112,2.40000009537,12.4600000381
"2001-10-03 08:00:00",15.2600002289,0.188999995589,107.599998474,10.7899999619,7.5,2.09999990463,12.4399995804
"2001-10-03 09:00:00",15.25,0.188999995589,108.400001526,10.8699998856,7.5,2.29999995232,12.4499998093
"2001-10-03 10:00:00",15.5500001907,0.187999993563,110.199996948,10.9799995422,7.51000022888,2.09999990463,13.2700004578
"2001-10-03 11:00:00",16.1000003815,0.331000000238,111.699996948,10.9899997711,7.55999994278,2.40000009537,13.2899999619
"2001-10-03 12:00:00",16.5100002289,0.328999996185,112.800003052,11.0100002289,7.55000019073,2.09999990463,13.0600004196
"2001-10-03 13:00:00",17.2299995422,0.324000000954,113.900001526,10.9499998093,7.57999992371,2.0,13.2100000381
"2001-10-03 14:00:00",17.5100002289,0.331000000238,113.800003052,10.8699998856,7.59999990463,1.70000004768,12.8599996567
"2001-10-03 15:00:00",18.1900005341,0.33599999547,116.900001526,11.0200004578,7.59000015259,1.89999997616,13.1099996567
"2001-10-03 16:00:00",18.0900001526,0.340999990702,111.800003052,10.5600004196,7.57999992371,2.20000004768,13.0799999237
"2001-10-03 17:00:00",17.9799995422,0.349000006914,107.0,10.1300001144,7.53999996185,2.70000004768,12.8299999237
"2001-10-03 18:00:00",18.0200004578,0.333999991417,103.900001526,9.81999969482,7.48999977112,5.0,12.779999733
"2001-10-03 19:00:00",17.9899997711,0.316000014544,102.699996948,9.72000026703,7.44999980927,6.09999990463,12.75
"2001-10-03 20:00:00",17.9099998474,0.307999998331,100.400001526,9.52000045776,7.42999982834,6.90000009537,12.720000267
"2001-10-03 21:00:00",17.8799991608,0.32800000906,99.3000030518,9.42000007629,7.40999984741,6.40000009537,12.6899995804
"2001-10-03 22:00:00",17.7900009155,0.330000013113,99.3000030518,9.43000030518,7.40999984741,6.90000009537,12.6700000763
"2001-10-03 23:00:00",17.6800003052,0.331999987364,100.300003052,9.55000019073,7.40999984741,3.59999990463,12.6499996185
"2001-10-04 00:00:00",17.5599994659,0.324000000954,101.199996948,9.65999984741,7.42000007629,3.20000004768,12.6300001144
"2001-10-04 01:00:00",17.4300003052,0.319999992847,102.099998474,9.77000045776,7.42000007629,2.40000009537,12.6000003815
"2001-10-04 02:00:00",17.2600002289,0.31099998951,102.900001526,9.89000034332,7.42000007629,2.29999995232,12.5799999237
"2001-10-04 03:00:00",17.1299991608,0.310000002384,103.800003052,10.0,7.42999982834,2.20000004768,12.5600004196
"2001-10-04 04:00:00",16.9699993134,0.310000002384,104.599998474,10.1000003815,7.44000005722,1.89999997616,12.5399999619
"2001-10-04 05:00:00",16.7800006866,0.307000011206,105.099998474,10.1999998093,7.44999980927,1.79999995232,12.5200004578
"2001-10-04 06:00:00",16.6200008392,0.303000003099,105.199996948,10.2399997711,7.44999980927,2.29999995232,12.4899997711
"2001-10-04 07:00:00",16.4300003052,0.223000004888,105.900001526,10.3500003815,7.46000003815,4.40000009537,12.470000267
"2001-10-04 08:00:00",16.2199993134,0.181999996305,106.5,10.4499998093,7.44999980927,2.0,12.4499998093
"2001-10-04 09:00:00",16.2000007629,0.189999997616,107.900001526,10.6000003815,7.48000001907,2.5,12.4600000381
"2001-10-04 10:00:00",16.4200000763,0.189999997616,110.099998474,10.7600002289,7.51000022888,1.70000004768,13.0399999619
"2001-10-04 11:00:00",16.9099998474,0.193000003695,112.900001526,10.9300003052,7.59000015259,1.60000002384,13.2899999619
"2001-10-04 12:00:00",17.25,0.268999993801,112.800003052,10.8400001526,7.57000017166,1.29999995232,13.1000003815
"2001-10-04 13:00:00",17.9200000763,0.298000007868,114.0,10.8000001907,7.55999994278,2.70000004768,13.2100000381
"2001-10-04 14:00:00",18.3700008392,0.293000012636,113.699996948,10.6800003052,7.57000017166,1.60000002384,12.8599996567
"2001-10-04 15:00:00",18.7900009155,0.254000008106,114.699996948,10.6700000763,7.59000015259,2.20000004768,13.1099996567
"2001-10-04 16:00:00",18.75,0.291999995708,112.599998474,10.4899997711,7.57999992371,1.60000002384,13.0799999237
"2001-10-04 17:00:00",18.6599998474,0.305999994278,110.0,10.2600002289,7.57000017166,1.70000004768,12.8199996948
"2001-10-04 18:00:00",18.6000003815,0.194000005722,108.699996948,10.1599998474,7.55000019073,1.5,12.7700004578
"2001-10-04 19:00:00",18.4400005341,0.17499999702,107.400001526,10.0699996948,7.53999996185,2.20000004768,12.7399997711
"2001-10-04 20:00:00",18.2800006866,0.172999992967,106.400001526,10.0100002289,7.51000022888,2.29999995232,12.7100000381
"2001-10-04 21:00:00",18.1100006104,0.166999995708,106.300003052,10.029999733,7.51000022888,2.20000004768,12.6800003052
"2001-10-04 22:00:00",17.9400005341,0.16400000453,106.0,10.0500001907,7.48999977112,1.39999997616,12.6599998474
"2001-10-04 23:00:00",17.7600002289,0.163000002503,105.800003052,10.0699996948,7.46999979019,1.89999997616,12.6400003433
"2001-10-05 00:00:00",17.6000003815,0.163000002503,105.699996948,10.0799999237,7.46999979019,2.70000004768,12.6199998856
"2001-10-05 01:00:00",17.4599990845,0.163000002503,105.900001526,10.1400003433,7.48999977112,2.79999995232,12.6000003815
"2001-10-05 02:00:00",17.3099994659,0.167999997735,106.0,10.1800003052,7.48000001907,2.79999995232,12.5799999237
"2001-10-05 03:00:00",17.1700000763,0.168999999762,105.800003052,10.1899995804,7.46999979019,2.40000009537,12.5600004196
"2001-10-05 04:00:00",16.9899997711,0.167999997735,106.0,10.2399997711,7.48000001907,2.59999990463,12.5399999619
"2001-10-05 05:00:00",16.7999992371,0.167999997735,106.300003052,10.3199996948,7.48999977112,2.09999990463,12.5200004578
"2001-10-05 06:00:00",16.6000003815,0.168999999762,106.5,10.3699998856,7.46000003815,1.5,12.4899997711
"2001-10-05 07:00:00",16.4200000763,0.166999995708,106.800003052,10.4499998093,7.48000001907,1.60000002384,12.4600000381
"2001-10-05 08:00:00",16.2800006866,0.170000001788,107.699996948,10.5600004196,7.5,1.10000002384,12.4499998093
"2001-10-05 09:00:00",16.2900009155,0.197999998927,109.800003052,10.7600002289,7.51999998093,1.29999995232,12.4600000381
"2001-10-05 10:00:00",16.5400009155,0.172999992967,111.5,10.8800001144,7.55000019073,1.10000002384,12.9499998093
"2001-10-05 11:00:00",17.0499992371,0.170000001788,114.5,11.0500001907,7.63000011444,1.10000002384,13.279999733
"2001-10-05 12:00:00",17.3700008392,0.179000005126,114.800003052,11.0100002289,7.61000013351,1.20000004768,13.2299995422
"2001-10-05 13:00:00",18.1599998474,0.264999985695,115.900001526,10.9300003052,7.63000011444,1.29999995232,13.1899995804
"2001-10-05 14:00:00",18.3999996185,0.301999986172,115.300003052,10.8100004196,7.63999986649,1.60000002384,12.9200000763
"2001-10-05 15:00:00",18.8400001526,0.31400001049,115.900001526,10.779999733,7.63999986649,2.20000004768,13.1099996567
"2001-10-05 16:00:00",18.8199996948,0.312000006437,113.900001526,10.5900001526,7.61999988556,2.0,13.0699996948
"2001-10-05 17:00:00",18.7299995422,0.310000002384,109.699996948,10.2299995422,7.57999992371,1.79999995232,12.8199996948
"2001-10-05 18:00:00",18.7399997711,0.300999999046,107.699996948,10.029999733,7.53999996185,2.09999990463,12.779999733
"2001-10-05 19:00:00",18.6800003052,0.20000000298,105.599998474,9.85000038147,7.51999998093,2.0,12.7399997711
"2001-10-05 20:00:00",18.6000003815,0.178000003099,103.400001526,9.65999984741,7.48999977112,2.59999990463,12.7100000381
"2001-10-05 21:00:00",18.5499992371,0.168999999762,102.099998474,9.55000019073,7.44999980927,3.0,12.6899995804
"2001-10-05 22:00:00",18.5200004578,0.162000000477,100.800003052,9.43999958038,7.42000007629,3.5,12.6700000763
"2001-10-05 23:00:00",18.4699993134,0.159999996424,100.0,9.36999988556,7.40000009537,4.0,12.6599998474
"2001-10-06 00:00:00",18.4500007629,0.159999996424,99.9000015259,9.36999988556,7.38999986649,9.69999980927,12.6400003433
"2001-10-06 01:00:00",18.3999996185,0.157000005245,100.5,9.43000030518,7.38000011444,3.40000009537,12.6199998856
"2001-10-06 02:00:00",18.3400001526,0.156000003219,101.199996948,9.51000022888,7.38999986649,3.59999990463,12.6000003815
"2001-10-06 03:00:00",18.3199996948,0.16400000453,101.900001526,9.57999992371,7.40999984741,5.09999990463,12.5799999237
"2001-10-06 04:00:00",18.3199996948,0.284000009298,102.400001526,9.61999988556,7.40999984741,7.19999980927,12.5699996948
"2001-10-06 05:00:00",18.3299999237,0.171000003815,103.400001526,9.72000026703,7.42999982834,7.5,12.5500001907
"2001-10-06 06:00:00",18.3400001526,0.165999993682,103.900001526,9.76000022888,7.44999980927,6.40000009537,12.5399999619
"2001-10-06 07:00:00",18.3500003815,0.167999997735,104.199996948,9.78999996185,7.46000003815,6.19999980927,12.5200004578
"2001-10-06 08:00:00",18.7099990845,0.312000006437,103.300003052,9.63000011444,7.34000015259,108.199996948,12.5100002289
"2001-10-06 09:00:00",19.8999996185,0.162000000477,100.0,9.10999965668,7.28000020981,89.9000015259,12.5
"2001-10-06 10:00:00",20.1100006104,0.126000002027,98.4000015259,8.93000030518,7.13000011444,64.8000030518,12.5100002289
"2001-10-06 11:00:00",20.3600006104,0.109999999404,99.4000015259,8.97000026703,7.07999992371,42.4000015259,12.529999733
"2001-10-06 12:00:00",20.2800006866,0.108999997377,95.6999969482,8.65999984741,7.01999998093,31.1000003815,12.5
"2001-10-06 13:00:00",20.3500003815,0.0860000029206,105.0,9.47999954224,7.07999992371,141.399993896,12.5100002289
"2001-10-06 14:00:00",19.9699993134,0.0780000016093,99.1999969482,9.02000045776,7.0,84.3000030518,12.6499996185
"2001-10-06 15:00:00",19.6499996185,0.0909999981523,99.3000030518,9.09000015259,6.90999984741,59.0,12.6000003815
"2001-10-06 16:00:00",19.2900009155,0.0960000008345,97.8000030518,9.02000045776,6.92000007629,47.4000015259,12.6199998856
"2001-10-06 17:00:00",18.9599990845,0.101000003517,95.1999969482,8.84000015259,6.88000011444,34.5,12.470000267
"2001-10-06 18:00:00",18.5400009155,0.112000003457,95.3000030518,8.92000007629,6.88999986649,27.6000003815,12.4499998093
"2001-10-06 19:00:00",18.2000007629,0.119000002742,94.9000015259,8.93999958038,6.90999984741,23.2000007629,12.4399995804
"2001-10-06 20:00:00",17.7900009155,0.126000002027,94.9000015259,9.02000045776,6.92999982834,19.7999992371,12.4300003052
"2001-10-06 21:00:00",17.4400005341,0.130999997258,95.0,9.10000038147,6.94999980927,17.0,12.4200000763
"2001-10-06 22:00:00",17.1499996185,0.136999994516,96.4000015259,9.28999996185,6.98000001907,15.1000003815,12.4099998474
"2001-10-06 23:00:00",16.8299999237,0.143000006676,96.6999969482,9.38000011444,7.03000020981,13.1999998093,12.3999996185
"2001-10-07 00:00:00",16.3899993896,0.15000000596,97.9000015259,9.57999992371,7.01000022888,10.5,12.3900003433
"2001-10-07 01:00:00",16.0400009155,0.136000007391,98.0999984741,9.67000007629,7.03999996185,9.30000019073,12.3699998856
"2001-10-07 02:00:00",15.6899995804,0.108000002801,99.3000030518,9.86999988556,7.07000017166,7.90000009537,12.3599996567
"2001-10-07 03:00:00",15.3299999237,0.179000005126,100.0,10.0100002289,7.15999984741,6.69999980927,12.3500003815
"2001-10-07 04:00:00",15.0,0.195999994874,102.0,10.279999733,7.15000009537,5.69999980927,12.3400001526
"2001-10-07 05:00:00",14.6599998474,0.209999993443,102.699996948,10.4300003052,7.17000007629,4.40000009537,12.3199996948
"2001-10-07 06:00:00",14.4099998474,0.141000002623,103.900001526,10.6000003815,7.19000005722,3.40000009537,12.3199996948
"2001-10-07 07:00:00",14.1099996567,0.137999996543,104.099998474,10.6999998093,7.23000001907,3.0,12.3100004196
"2001-10-07 08:00:00",13.8100004196,0.149000003934,104.900001526,10.8500003815,7.28000020981,2.29999995232,12.3000001907
"2001-10-07 09:00:00",13.7600002289,0.150999993086,106.0,10.970000267,7.34000015259,2.09999990463,12.3199996948
"2001-10-07 10:00:00",13.7700004578,0.156000003219,107.5,11.1300001144,7.38000011444,1.70000004768,12.720000267
"2001-10-07 11:00:00",14.1000003815,0.317999988794,109.5,11.2600002289,7.42000007629,1.60000002384,13.3199996948
"2001-10-07 12:00:00",14.4300003052,0.326000005007,110.5,11.2700004578,7.44000005722,1.29999995232,13.3699998856
"2001-10-07 13:00:00",14.9099998474,0.331999987364,111.5,11.2600002289,7.46000003815,1.39999997616,13.3400001526
"2001-10-07 14:00:00",15.0100002289,0.217999994755,111.599998474,11.25,7.48000001907,1.89999997616,12.8800001144
"2001-10-07 15:00:00",15.4799995422,0.196999996901,113.0,11.2700004578,7.48000001907,1.39999997616,13.279999733
"2001-10-07 16:00:00",15.3900003433,0.178000003099,111.300003052,11.1199998856,7.48999977112,3.5,13.2600002289
"2001-10-07 17:00:00",15.1000003815,0.172000005841,108.900001526,10.9499998093,7.46999979019,1.5,12.8599996567
"2001-10-07 18:00:00",15.0,0.166999995708,107.900001526,10.8800001144,7.44999980927,1.60000002384,12.779999733
"2001-10-07 19:00:00",14.8299999237,0.208000004292,107.300003052,10.8599996567,7.42999982834,1.70000004768,12.7299995422
"2001-10-07 20:00:00",14.5500001907,0.16099999845,107.300003052,10.9200000763,7.40000009537,1.89999997616,12.6999998093
"2001-10-07 21:00:00",14.2899999619,0.156000003219,107.099998474,10.9600000381,7.38999986649,2.0,12.6599998474
"2001-10-07 22:00:00",14.0,0.152999997139,107.300003052,11.0500001907,7.40000009537,1.70000004768,12.6400003433
"2001-10-07 23:00:00",13.6999998093,0.151999995112,107.800003052,11.1800003052,7.40999984741,1.60000002384,12.6199998856
"2001-10-08 00:00:00",13.4300003052,0.151999995112,108.400001526,11.3100004196,7.40000009537,1.10000002384,12.6000003815
"2001-10-08 01:00:00",13.1300001144,0.151999995112,108.900001526,11.4399995804,7.38999986649,1.0,12.5799999237
"2001-10-08 02:00:00",12.8999996185,0.150999993086,109.400001526,11.5500001907,7.44000005722,1.0,12.5699996948
"2001-10-08 03:00:00",12.7600002289,0.150999993086,110.099998474,11.6599998474,7.42999982834,0.800000011921,12.5600004196
"2001-10-08 04:00:00",12.529999733,0.151999995112,110.599998474,11.779999733,7.44000005722,0.40000000596,12.5399999619
"2001-10-08 05:00:00",12.2899999619,0.152999997139,111.0,11.8800001144,7.44000005722,0.300000011921,12.529999733
"2001-10-08 06:00:00",12.1400003433,0.155000001192,110.800003052,11.8999996185,7.48000001907,0.40000000596,12.5200004578
"2001-10-08 07:00:00",11.8900003433,0.155000001192,111.199996948,12.0100002289,7.46999979019,0.300000011921,12.5
"2001-10-08 08:00:00",11.6899995804,0.156000003219,111.800003052,12.1300001144,7.48000001907,0.5,12.4899997711
"2001-10-08 09:00:00",11.6700000763,0.289999991655,113.300003052,12.2899999619,7.53999996185,0.5,12.5
"2001-10-08 10:00:00",11.8000001907,0.287999987602,114.800003052,12.4200000763,7.51999998093,0.40000000596,12.7700004578
"2001-10-08 11:00:00",12.2100000381,0.244000002742,116.800003052,12.5200004578,7.53999996185,0.20000000298,13.4600000381
"2001-10-08 12:00:00",12.6499996185,0.170000001788,117.699996948,12.5,7.53999996185,0.5,13.279999733
"2001-10-08 13:00:00",13.1400003433,0.254000008106,117.5,12.3299999237,7.55000019073,0.699999988079,13.4300003052
"2001-10-08 14:00:00",13.3599996567,0.303000003099,117.300003052,12.2399997711,7.55999994278,0.40000000596,12.8599996567
"2001-10-08 15:00:00",13.7700004578,0.300000011921,118.400001526,12.25,7.57000017166,0.20000000298,13.3699998856
"2001-10-08 16:00:00",13.6599998474,0.207000002265,117.300003052,12.1700000763,7.59000015259,0.300000011921,13.3299999237
"2001-10-08 17:00:00",13.5799999237,0.270999997854,115.400001526,12.0,7.59000015259,1.0,12.8699998856
"2001-10-08 18:00:00",13.5,0.31099998951,114.800003052,11.9499998093,7.59000015259,2.09999990463,12.8000001907
"2001-10-08 19:00:00",13.3500003815,0.245000004768,113.699996948,11.8800001144,7.57999992371,4.0,12.7399997711
"2001-10-08 20:00:00",13.1599998474,0.195999994874,112.900001526,11.8500003815,7.55999994278,3.70000004768,12.6999998093
"2001-10-08 21:00:00",12.8999996185,0.17499999702,112.099998474,11.8299999237,7.51999998093,4.09999990463,12.6599998474
"2001-10-08 22:00:00",12.720000267,0.170000001788,111.800003052,11.8400001526,7.51000022888,3.0,12.6400003433
"2001-10-08 23:00:00",12.4200000763,0.165999993682,111.5,11.8900003433,7.48999977112,2.29999995232,12.6099996567
"2001-10-09 00:00:00",12.1400003433,0.16400000453,111.199996948,11.9399995804,7.48000001907,2.0,12.6000003815
"2001-10-09 01:00:00",11.8599996567,0.16099999845,111.5,12.0500001907,7.48000001907,1.5,12.5699996948
"2001-10-09 02:00:00",11.5900001526,0.159999996424,111.800003052,12.1599998474,7.44999980927,1.60000002384,12.5600004196
"2001-10-09 03:00:00",11.4600000381,0.157000005245,112.300003052,12.25,7.46000003815,2.29999995232,12.529999733
"2001-10-09 04:00:00",11.1400003433,0.156000003219,111.900001526,12.3000001907,7.44999980927,2.90000009537,12.5200004578
"2001-10-09 05:00:00",10.9200000763,0.156000003219,112.599998474,12.4300003052,7.46999979019,3.40000009537,12.5
"2001-10-09 06:00:00",10.6000003815,0.157000005245,112.800003052,12.5500001907,7.44999980927,2.79999995232,12.4799995422
"2001-10-09 07:00:00",10.2600002289,0.158000007272,112.900001526,12.6599998474,7.46000003815,2.59999990463,12.4600000381
"2001-10-09 08:00:00",10.1700000763,0.159999996424,113.900001526,12.8000001907,7.46999979019,1.79999995232,12.4399995804
"2001-10-09 09:00:00",10.2100000381,0.180000007153,115.400001526,12.9600000381,7.48999977112,1.29999995232,12.4799995422
"2001-10-09 10:00:00",10.4399995804,0.300999999046,116.199996948,12.970000267,7.51000022888,1.0,12.5900001526